Tracking 29892 objects as of 21-Nov-2024
HD Live streaming from Space Station
objects crossing your sky now

STARLINK-3258

Track STARLINK-3258 now!
10-day predictions
STARLINK-3258 is classified as:


NORAD ID: 50206
Int'l Code: 2021-125BC
Perigee: 545.9 km
Apogee: 547.9 km
Inclination: 53.2 °
Period: 95.4 minutes
Semi major axis: 6917 km
RCS: Unknown
Launch date: December 18, 2021
Source: United States (US)
Launch site: AIR FORCE WESTERN TEST RANGE (AFWTR)
Your satellite tracking list
Your tracking list is empty




NASA's NSSDC Master Catalog

Two Line Element Set (TLE):
1 50206U 21125BC  24326.10648359  .00000143  00000-0  27076-4 0  9991
2 50206  53.2165 205.0085 0001438  87.5958 272.5199 15.08836345163160
Source of the keplerian elements: AFSPC